QPF
0.05 0.05 0.03 0.03 0.04 0.04 0.06 0.07 0.08 0.05 0.04 0.04 0.04 0.06 0.07 0.08 0.08 0.07 0.07 0.07 0.07 0.07 0.05 0.04 0.03 0.03 0.02 0.01 0.01 0.02 0.03 0.05 0.05 0.05 0.06 0.06 0.06 0.07
0.05 0.04 0.03 0.02 0.02 0.02 0.03 0.05 0.08 0.06 0.04 0.04 0.04 0.06 0.07 0.07 0.09 0.08 0.06 0.06 0.05 0.05 0.05 0.04 0.03 0.02 0.02 0.02 0.02 0.02 0.03 0.05 0.05 0.03 0.04 0.05 0.07 0.08
0.04 0.04 0.03 0.03 0.02 0.01 0.03 0.05 0.08 0.08 0.05 0.04 0.05 0.05 0.06 0.08 0.08 0.07 0.06 0.05 0.04 0.04 0.04 0.04 0.03 0.03 0.02 0.02 0.02 0.02 0.03 0.03 0.04 0.04 0.04 0.06 0.07 0.07
0.04 0.04 0.02 0.03 0.02 0.01 0.02 0.03 0.05 0.06 0.05 0.05 0.05 0.05 0.05 0.07 0.08 0.09 0.09 0.07 0.05 0.04 0.03 0.03 0.03 0.02 0.02 0.02 0.02 0.02 0.03 0.04 0.05 0.05 0.04 0.04 0.04 0.04
0.04 0.03 0.02 0.01 0.01 0.01 0.02 0.03 0.03 0.04 0.04 0.04 0.03 0.04 0.05 0.06 0.07 0.08 0.09 0.07 0.05 0.05 0.05 0.04 0.03 0.03 0.02 0.02 0.02 0.03 0.03 0.04 0.04 0.04 0.04 0.03 0.03 0.03
0.02 0.02 0.02 0.02 0.02 0.02 0.02 0.03 0.04 0.04 0.03 0.03 0.03 0.04 0.05 0.06 0.06 0.06 0.05 0.05 0.06 0.07 0.07 0.05 0.04 0.03 0.02 0.02 0.02 0.02 0.02 0.02 0.03 0.02 0.02 0.02 0.02 0.02
0.02 0.02 0.02 0.03 0.03 0.03 0.04 0.05 0.05 0.05 0.05 0.04 0.04 0.05 0.05 0.06 0.06 0.06 0.06 0.06 0.06 0.06 0.05 0.03 0.02 0.01 0.01 0.01 0.01 0.01 0.01 0.01 0.02 0.02 0.03 0.02 0.02 0.02
0.02 0.01 0.02 0.03 0.03 0.03 0.04 0.04 0.04 0.05 0.06 0.05 0.04 0.04 0.04 0.04 0.04 0.04 0.05 0.06 0.05 0.04 0.03 0.02 0.02 0.01 0.01 0.01 0.02 0.02 0.02 0.02 0.02 0.03 0.03 0.03 0.02 0.02
0.01 0.01 0.01 0.01 0.02 0.03 0.03 0.04 0.04 0.04 0.05 0.04 0.04 0.03 0.03 0.03 0.04 0.04 0.04 0.03 0.03 0.03 0.03 0.02 0.02 0.02 0.02 0.02 0.02 0.02 0.01 0.02 0.02 0.03 0.03 0.03 0.03 0.02
0.02 0.01 0.01 0.02 0.02 0.02 0.02 0.02 0.03 0.03 0.03 0.02 0.02 0.03 0.02 0.02 0.02 0.02 0.02 0.02 0.01 0.02 0.02 0.02 0.03 0.03 0.03 0.02 0.02 0.02 0.02 0.02 0.03 0.03 0.03 0.04 0.03 0.03
0.02 0.02 0.02 0.02 0.02 0.03 0.02 0.02 0.01 0.02 0.03 0.02 0.02 0.02 0.02 0.02 0.02 0.02 0.02 0.01 0.01 0.01 0.02 0.02 0.02 0.03 0.03 0.02 0.02 0.03 0.02 0.02 0.02 0.03 0.04 0.04 0.04 0.04
0.03 0.03 0.02 0.02 0.03 0.04 0.03 0.03 0.03 0.03 0.03 0.03 0.02 0.02 0.02 0.02 0.03 0.02 0.03 0.03 0.02 0.02 0.01 0.02 0.03 0.03 0.03 0.02 0.03 0.03 0.03 0.02 0.02 0.01 0.02 0.02 0.03 0.03
0.02 0.02 0.03 0.04 0.05 0.07 0.05 0.05 0.06 0.07 0.06 0.05 0.04 0.04 0.05 0.04 0.05 0.04 0.04 0.04 0.04 0.04 0.04 0.04 0.03 0.03 0.03 0.03 0.02 0.02 0.02 0.02 0.02 0.01 0.02 0.02 0.02 0.03
0.03 0.04 0.04 0.05 0.07 0.08 0.07 0.08 0.09 0.09 0.07 0.07 0.07 0.06 0.05 0.04 0.04 0.04 0.04 0.04 0.04 0.05 0.05 0.05 0.04 0.04 0.03 0.02 0.02 0.01 0.02 0.02 0.02 0.02 0.02 0.02 0.02 0.02
0.04 0.05 0.05 0.05 0.05 0.04 0.04 0.04 0.04 0.05 0.06 0.06 0.05 0.04 0.04 0.03 0.03 0.03 0.03 0.04 0.04 0.05 0.05 0.04 0.04 0.03 0.02 0.02 0.01 0.01 0.01 0.01 0.02 0.02 0.02 0.01 0.01 0.01
0.04 0.05 0.05 0.04 0.03 0.02 0.03 0.03 0.02 0.03 0.03 0.03 0.04 0.04 0.04 0.03 0.03 0.04 0.04 0.06 0.06 0.06 0.05 0.03 0.03 0.03 0.02 0.02 0.02 0.02 0.02 0.02 0.02 0.02 0.02 0.02 0.01 0.01
0.06 0.07 0.07 0.06 0.05 0.04 0.04 0.03 0.02 0.02 0.03 0.05 0.05 0.05 0.05 0.05 0.04 0.04 0.05 0.06 0.07 0.06 0.06 0.06 0.05 0.04 0.03 0.02 0.02 0.02 0.02 0.02 0.02 0.02 0.01 0.01 0.01 0.01
0.07 0.06 0.07 0.08 0.08 0.07 0.05 0.04 0.02 0.01 0.02 0.03 0.03 0.03 0.03 0.03 0.04 0.04 0.04 0.05 0.08 0.08 0.07 0.06 0.05 0.04 0.03 0.02 0.01 0.02 0.02 0.01 0.01 0.01 0.01 0.01 0.01 0.01
0.07 0.06 0.06 0.06 0.05 0.05 0.04 0.03 0.02 0.02 0.02 0.03 0.03 0.03 0.03 0.03 0.03 0.04 0.04 0.05 0.05 0.06 0.06 0.07 0.07 0.07 0.06 0.05 0.03 0.03 0.02 0.01 0.01 0.01 0.01 0.01 0.01 0.01
0.07 0.06 0.04 0.04 0.04 0.03 0.02 0.02 0.02 0.02 0.03 0.04 0.04 0.04 0.04 0.05 0.05 0.05 0.05 0.05 0.05 0.05 0.05 0.06 0.05 0.05 0.06 0.06 0.04 0.03 0.03 0.02 0.02 0.02 0.01 0.01 0.01 0.01
0.04 0.04 0.03 0.03 0.03 0.03 0.02 0.02 0.02 0.03 0.03 0.04 0.05 0.05 0.06 0.06 0.05 0.06 0.06 0.06 0.06 0.06 0.05 0.04 0.04 0.05 0.06 0.05 0.04 0.03 0.03 0.02 0.02 0.02 0.02 0.01 0.01 0.01
0.03 0.03 0.03 0.02 0.02 0.02 0.02 0.02 0.03 0.02 0.02 0.02 0.02 0.02 0.03 0.03 0.03 0.04 0.05 0.06 0.06 0.05 0.04 0.04 0.03 0.04 0.05 0.05 0.05 0.04 0.03 0.02 0.02 0.02 0.02 0.01 0.01 0.01
0.04 0.04 0.03 0.04 0.04 0.04 0.04 0.03 0.02 0.02 0.02 0.02 0.02 0.02 0.03 0.03 0.04 0.04 0.04 0.04 0.04 0.04 0.04 0.03 0.04 0.04 0.04 0.04 0.03 0.03 0.03 0.03 0.02 0.02 0.02 0.03 0.03 0.03
MSLP
1013.84 1014.07 1014.33 1014.60 1014.85 1015.06 1015.22 1015.33 1015.42 1015.50 1015.60 1015.74 1015.92 1016.14 1016.37 1016.61 1016.83 1017.02 1017.18 1017.30 1017.41 1017.52 1017.65 1017.80 1017.97 1018.15 1018.33 1018.48 1018.61 1018.69 1018.73 1018.73 1018.71 1018.68 1018.64 1018.60 1018.55 1018.49
1013.29 1013.51 1013.75 1014.01 1014.25 1014.47 1014.65 1014.82 1014.98 1015.15 1015.35 1015.59 1015.87 1016.18 1016.49 1016.79 1017.06 1017.28 1017.46 1017.59 1017.70 1017.81 1017.93 1018.07 1018.23 1018.40 1018.57 1018.71 1018.82 1018.89 1018.92 1018.93 1018.91 1018.88 1018.84 1018.81 1018.76 1018.69
1012.75 1012.95 1013.18 1013.41 1013.65 1013.87 1014.07 1014.27 1014.48 1014.72 1015.01 1015.33 1015.69 1016.07 1016.46 1016.81 1017.12 1017.38 1017.57 1017.73 1017.85 1017.97 1018.09 1018.23 1018.39 1018.55 1018.71 1018.84 1018.94 1019.01 1019.04 1019.04 1019.03 1019.01 1018.99 1018.97 1018.93 1018.86
1012.28 1012.47 1012.69 1012.91 1013.13 1013.35 1013.56 1013.78 1014.02 1014.31 1014.64 1015.02 1015.43 1015.87 1016.29 1016.68 1017.02 1017.30 1017.52 1017.69 1017.83 1017.97 1018.10 1018.25 1018.42 1018.59 1018.75 1018.89 1018.99 1019.06 1019.09 1019.10 1019.10 1019.10 1019.10 1019.10 1019.08 1019.03
1011.93 1012.12 1012.33 1012.55 1012.76 1012.98 1013.19 1013.42 1013.68 1013.97 1014.33 1014.72 1015.16 1015.60 1016.04 1016.44 1016.79 1017.08 1017.32 1017.50 1017.67 1017.82 1017.99 1018.16 1018.35 1018.54 1018.71 1018.86 1018.98 1019.05 1019.10 1019.12 1019.14 1019.16 1019.18 1019.21 1019.21 1019.18
1011.72 1011.92 1012.14 1012.36 1012.57 1012.79 1013.00 1013.23 1013.48 1013.77 1014.11 1014.50 1014.91 1015.34 1015.76 1016.14 1016.48 1016.77 1017.01 1017.21 1017.39 1017.58 1017.77 1017.98 1018.20 1018.42 1018.62 1018.79 1018.92 1019.01 1019.07 1019.11 1019.14 1019.18 1019.23 1019.28 1019.31 1019.30
1011.62 1011.85 1012.08 1012.32 1012.54 1012.76 1012.97 1013.19 1013.43 1013.70 1014.01 1014.36 1014.73 1015.12 1015.49 1015.84 1016.15 1016.42 1016.65 1016.86 1017.07 1017.28 1017.51 1017.76 1018.01 1018.27 1018.50 1018.69 1018.84 1018.94 1019.01 1019.06 1019.10 1019.15 1019.21 1019.28 1019.34 1019.36
1011.59 1011.84 1012.10 1012.36 1012.60 1012.83 1013.05 1013.26 1013.49 1013.73 1014.00 1014.30 1014.62 1014.95 1015.27 1015.57 1015.84 1016.09 1016.32 1016.53 1016.76 1017.00 1017.26 1017.54 1017.83 1018.12 1018.37 1018.59 1018.75 1018.86 1018.93 1018.98 1019.02 1019.07 1019.13 1019.21 1019.28 1019.33
1011.54 1011.82 1012.11 1012.39 1012.66 1012.91 1013.14 1013.36 1013.57 1013.79 1014.03 1014.28 1014.55 1014.83 1015.10 1015.36 1015.60 1015.82 1016.04 1016.27 1016.51 1016.77 1017.07 1017.38 1017.70 1018.00 1018.27 1018.49 1018.66 1018.76 1018.82 1018.85 1018.88 1018.92 1018.97 1019.05 1019.13 1019.19
1011.39 1011.70 1012.02 1012.34 1012.64 1012.91 1013.16 1013.38 1013.60 1013.81 1014.02 1014.25 1014.49 1014.73 1014.97 1015.20 1015.42 1015.64 1015.87 1016.10 1016.36 1016.65 1016.96 1017.29 1017.63 1017.94 1018.21 1018.43 1018.58 1018.67 1018.70 1018.71 1018.71 1018.72 1018.75 1018.82 1018.90 1018.97
1011.10 1011.45 1011.80 1012.14 1012.47 1012.77 1013.04 1013.29 1013.51 1013.73 1013.95 1014.18 1014.41 1014.64 1014.87 1015.10 1015.33 1015.56 1015.79 1016.04 1016.32 1016.63 1016.95 1017.29 1017.63 1017.94 1018.20 1018.40 1018.52 1018.58 1018.59 1018.56 1018.52 1018.50 1018.51 1018.55 1018.63 1018.71
1010.69 1011.06 1011.44 1011.81 1012.16 1012.49 1012.79 1013.07 1013.32 1013.56 1013.80 1014.05 1014.30 1014.55 1014.80 1015.05 1015.30 1015.55 1015.81 1016.09 1016.38 1016.70 1017.03 1017.37 1017.69 1017.98 1018.22 1018.39 1018.49 1018.51 1018.48 1018.42 1018.35 1018.29 1018.28 1018.30 1018.37 1018.46
1010.18 1010.57 1010.98 1011.38 1011.76 1012.11 1012.44 1012.75 1013.04 1013.32 1013.60 1013.88 1014.17 1014.46 1014.75 1015.04 1015.33 1015.61 1015.90 1016.20 1016.51 1016.83 1017.16 1017.48 1017.79 1018.05 1018.26 1018.40 1018.46 1018.45 1018.39 1018.30 1018.21 1018.13 1018.09 1018.10 1018.16 1018.26
1009.65 1010.07 1010.49 1010.91 1011.31 1011.69 1012.05 1012.39 1012.72 1013.04 1013.37 1013.70 1014.04 1014.39 1014.73 1015.07 1015.39 1015.72 1016.04 1016.35 1016.67 1016.99 1017.30 1017.60 1017.88 1018.11 1018.28 1018.39 1018.43 1018.40 1018.32 1018.21 1018.10 1018.01 1017.97 1017.97 1018.04 1018.14
1009.15 1009.59 1010.03 1010.46 1010.88 1011.29 1011.67 1012.05 1012.42 1012.79 1013.17 1013.55 1013.95 1014.34 1014.74 1015.12 1015.49 1015.84 1016.18 1016.51 1016.82 1017.13 1017.42 1017.69 1017.93 1018.13 1018.27 1018.35 1018.36 1018.32 1018.24 1018.13 1018.02 1017.94 1017.90 1017.92 1017.99 1018.10
1008.71 1009.17 1009.63 1010.08 1010.52 1010.94 1011.35 1011.76 1012.16 1012.58 1013.01 1013.45 1013.89 1014.34 1014.77 1015.20 1015.59 1015.97 1016.31 1016.64 1016.94 1017.22 1017.48 1017.72 1017.92 1018.09 1018.20 1018.26 1018.26 1018.22 1018.14 1018.05 1017.97 1017.90 1017.88 1017.91 1017.99 1018.12
1008.34 1008.82 1009.29 1009.75 1010.20 1010.64 1011.08 1011.52 1011.96 1012.42 1012.89 1013.37 1013.86 1014.35 1014.82 1015.26 1015.68 1016.06 1016.41 1016.72 1017.00 1017.25 1017.47 1017.67 1017.84 1017.97 1018.06 1018.11 1018.12 1018.08 1018.03 1017.97 1017.91 1017.88 1017.88 1017.94 1018.04 1018.17
1008.01 1008.49 1008.97 1009.44 1009.90 1010.36 1010.82 1011.29 1011.77 1012.27 1012.78 1013.30 1013.83 1014.34 1014.84 1015.30 1015.72 1016.10 1016.43 1016.72 1016.98 1017.20 1017.39 1017.55 1017.69 1017.80 1017.87 1017.92 1017.93 1017.92 1017.89 1017.86 1017.84 1017.85 1017.89 1017.97 1018.09 1018.23
1007.66 1008.14 1008.62 1009.10 1009.57 1010.05 1010.53 1011.03 1011.55 1012.08 1012.63 1013.19 1013.74 1014.28 1014.79 1015.26 1015.68 1016.06 1016.38 1016.65 1016.88 1017.07 1017.24 1017.37 1017.49 1017.58 1017.65 1017.69 1017.72 1017.73 1017.74 1017.75 1017.77 1017.82 1017.89 1018.00 1018.13 1018.28
1007.26 1007.73 1008.21 1008.68 1009.16 1009.66 1010.17 1010.70 1011.25 1011.82 1012.40 1012.99 1013.57 1014.13 1014.65 1015.13 1015.56 1015.92 1016.24 1016.50 1016.71 1016.89 1017.03 1017.15 1017.25 1017.34 1017.41 1017.46 1017.51 1017.55 1017.59 1017.64 1017.70 1017.78 1017.89 1018.02 1018.17 1018.33
1006.81 1007.27 1007.73 1008.20 1008.68 1009.19 1009.72 1010.28 1010.86 1011.47 1012.09 1012.70 1013.31 1013.88 1014.42 1014.90 1015.33 1015.70 1016.01 1016.26 1016.47 1016.64 1016.79 1016.90 1017.01 1017.09 1017.17 1017.24 1017.31 1017.38 1017.45 1017.54 1017.64 1017.76 1017.90 1018.06 1018.23 1018.40
1006.34 1006.77 1007.21 1007.67 1008.16 1008.68 1009.23 1009.81 1010.42 1011.06 1011.70 1012.34 1012.96 1013.55 1014.10 1014.59 1015.02 1015.39 1015.70 1015.97 1016.18 1016.36 1016.51 1016.64 1016.75 1016.85 1016.95 1017.04 1017.13 1017.23 1017.34 1017.46 1017.60 1017.76 1017.94 1018.12 1018.31 1018.49
1005.88 1006.29 1006.71 1007.17 1007.66 1008.19 1008.76 1009.36 1009.99 1010.65 1011.31 1011.96 1012.59 1013.18 1013.73 1014.22 1014.65 1015.03 1015.35 1015.62 1015.85 1016.05 1016.21 1016.36 1016.49 1016.61 1016.73 1016.85 1016.97 1017.10 1017.24 1017.41 1017.59 1017.78 1018.00 1018.21 1018.43 1018.63
Thickness
5749 5748 5747 5746 5745 5744 5742 5738 5730 5723 5724 5729 5731 5734 5733 5732 5731 5729 5728 5726 5724 5722 5720 5718 5717 5715 5714 5712 5711 5710 5708 5707 5705 5704 5702 5700 5698 5696
5747 5746 5745 5745 5744 5743 5741 5739 5735 5729 5724 5727 5728 5730 5729 5728 5726 5724 5723 5722 5720 5718 5715 5714 5712 5711 5709 5708 5706 5705 5703 5702 5700 5698 5696 5695 5693 5691
5746 5744 5743 5743 5741 5740 5739 5737 5734 5731 5725 5725 5726 5726 5724 5722 5721 5720 5718 5717 5715 5713 5711 5709 5707 5705 5704 5702 5701 5699 5697 5696 5694 5692 5690 5688 5687 5685
5743 5742 5741 5741 5738 5737 5736 5734 5732 5730 5726 5721 5721 5720 5719 5718 5717 5715 5713 5711 5709 5708 5706 5704 5702 5700 5698 5696 5694 5692 5691 5689 5687 5686 5684 5682 5680 5678
5741 5739 5738 5737 5735 5734 5733 5731 5730 5728 5725 5720 5717 5717 5715 5714 5711 5709 5708 5706 5704 5702 5700 5698 5696 5694 5692 5690 5688 5686 5684 5682 5680 5678 5676 5674 5672 5670
5739 5737 5736 5734 5733 5731 5729 5727 5725 5722 5720 5717 5714 5712 5710 5709 5706 5703 5701 5699 5698 5697 5694 5692 5690 5688 5686 5684 5682 5680 5677 5675 5673 5671 5668 5666 5664 5662
5735 5734 5733 5732 5732 5729 5727 5723 5721 5717 5714 5711 5708 5706 5704 5702 5701 5699 5696 5694 5692 5691 5688 5686 5684 5681 5679 5677 5675 5673 5670 5668 5666 5663 5661 5658 5656 5654
5731 5730 5730 5728 5727 5726 5724 5722 5719 5714 5709 5706 5704 5702 5701 5700 5698 5695 5691 5687 5684 5685 5682 5679 5678 5675 5674 5671 5669 5667 5664 5661 5658 5655 5653 5650 5648 5645
5726 5724 5723 5723 5721 5719 5717 5716 5714 5712 5709 5705 5701 5700 5699 5698 5694 5690 5687 5684 5681 5681 5676 5672 5671 5668 5667 5665 5662 5660 5657 5654 5651 5648 5645 5642 5640 5637
5721 5719 5717 5716 5715 5712 5709 5707 5705 5704 5703 5702 5699 5698 5697 5695 5692 5688 5684 5679 5676 5674 5671 5665 5664 5661 5661 5658 5655 5652 5649 5646 5643 5640 5636 5633 5631 5628
5716 5714 5711 5709 5708 5705 5701 5698 5697 5696 5697 5695 5694 5692 5691 5689 5686 5681 5676 5671 5666 5665 5663 5659 5656 5653 5651 5649 5647 5644 5641 5638 5635 5632 5628 5625 5622 5618
5708 5707 5705 5703 5701 5699 5695 5691 5688 5687 5687 5685 5684 5683 5681 5680 5678 5675 5670 5664 5659 5656 5656 5652 5648 5644 5641 5640 5638 5635 5632 5629 5626 5623 5619 5616 5612 5608
5700 5699 5698 5696 5694 5692 5689 5686 5683 5681 5678 5676 5674 5672 5671 5669 5668 5666 5663 5660 5654 5651 5650 5646 5640 5636 5632 5629 5627 5626 5623 5619 5616 5613 5610 5606 5602 5599
5693 5691 5690 5688 5686 5683 5681 5679 5677 5673 5669 5666 5664 5662 5660 5659 5658 5656 5654 5652 5649 5646 5643 5639 5633 5629 5624 5619 5617 5615 5613 5610 5607 5603 5600 5597 5593 5590
5686 5684 5681 5679 5677 5674 5673 5671 5667 5664 5660 5657 5655 5653 5652 5650 5648 5646 5644 5642 5639 5636 5633 5629 5626 5622 5617 5613 5609 5605 5602 5599 5597 5594 5591 5588 5585 5581
5676 5674 5671 5668 5667 5664 5662 5659 5656 5654 5651 5649 5647 5645 5643 5640 5638 5635 5632 5629 5626 5623 5622 5619 5616 5613 5608 5605 5601 5597 5594 5590 5588 5585 5582 5579 5576 5573
5666 5663 5660 5657 5654 5651 5650 5648 5645 5643 5641 5639 5637 5634 5632 5630 5627 5625 5622 5618 5614 5611 5609 5607 5605 5603 5600 5597 5592 5589 5585 5582 5580 5577 5573 5569 5567 5565
5655 5652 5649 5646 5643 5641 5638 5636 5634 5632 5630 5628 5625 5623 5621 5619 5616 5614 5611 5607 5603 5600 5598 5596 5592 5589 5587 5586 5585 5581 5577 5574 5570 5567 5563 5560 5558 5557
5644 5641 5638 5635 5632 5630 5627 5624 5622 5620 5617 5615 5613 5611 5609 5607 5605 5602 5600 5596 5592 5590 5588 5585 5581 5578 5575 5573 5573 5573 5568 5565 5561 5558 5555 5552 5550 5549
5631 5629 5627 5624 5620 5617 5614 5612 5610 5608 5605 5602 5600 5598 5596 5594 5592 5589 5587 5584 5581 5578 5574 5573 5571 5569 5567 5564 5562 5560 5560 5556 5552 5549 5546 5543 5541 5540
5619 5616 5614 5611 5608 5605 5602 5600 5597 5594 5592 5590 5587 5585 5583 5581 5578 5577 5574 5571 5569 5566 5563 5561 5561 5560 5557 5553 5549 5548 5547 5546 5544 5540 5537 5533 5530 5528
5607 5604 5601 5599 5597 5593 5590 5587 5584 5582 5579 5577 5575 5573 5571 5568 5566 5564 5562 5560 5557 5555 5553 5551 5549 5548 5545 5541 5539 5537 5535 5534 5533 5531 5529 5526 5522 5519
5595 5592 5589 5587 5584 5581 5578 5575 5572 5570 5568 5566 5564 5562 5559 5557 5555 5553 5551 5549 5546 5543 5541 5539 5537 5535 5533 5531 5528 5526 5525 5523 5521 5519 5518 5517 5516 5514